Powrót do katalogu

STARLINK-11109

AktywnyŁącznośćVLEO
NORAD 60306·PAYLOAD·🇺🇸 United States

Wystrzelony Jul 28, 2024 z Vandenberg Space Force Base

Loading…

Następne Przeloty (najbliższe 24 godziny)

TLE

ŚwieżeSource: CelesTrak SupGP

Epoka: Sep 15, 2026, 02:42 UTC

1 60306C 24133F   26258.11298611  .00053949  00000+0  44408-3 0  2580
2 60306  53.1574 292.3654 0001219  89.6483 359.0824 15.69699632    12

Śledź STARLINK-11109 w czasie rzeczywistym z AllMySat

Download on the App Store